sat.trackr.live / text

‹ back to catalog

STARLINK-11622 [DTC]

NORAD 63187 · 2025-048E

PAYLOAD ACTIVE UNKNOWN

§ Identity

Operator
Country
US
Launch date
2025-03-13
Launch site
AFETR
Launch vehicle
Mass (kg)
RCS (m²)

Purposes: comms

External: N2YO · Heavens-Above · Gunter

§ Orbital elements

Epoch: 2026-09-20T22:23:57.272064Z

Period
91.67 min
Inclination
42.9994°
Eccentricity
0.0001275
Mean motion
15.70862450 rev/d
Perigee alt
355.6 km
Apogee alt
357.3 km
Semi-major
6,734.6 km
B*
1.2195e-3
RAAN
223.4152°
Arg perigee
257.4680°
Mean anomaly
102.6045°
Rev number
8,922

§ Raw data

STARLINK-11622 [DTC]1 63187U 25048E   26263.93330176  .00159212  00000+0  12195-2 0  99942 63187  42.9994 223.4152 0001275 257.4680 102.6045 15.70862450 89227

JSON: /api/v1/satellites/63187 · /tle

For live sub-satellite position, see the globe view (requires WebGL).

§ Visibility from observer

Set your observer location to see the next 7 days of passes ≥ 10°. The values pass through the URL so the page stays shareable.

No JS? Fill the form by hand. The geolocation button needs JavaScript.